Year,Month,Day,Hour,Minute,Value (Times are PST for windspeed in km/hr)
2015,08,29,00,00,4.60
2015,08,29,00,01,3.90
2015,08,29,00,02,4.30
2015,08,29,00,03,9.00
2015,08,29,00,04,13.80
2015,08,29,00,05,7.40
2015,08,29,00,06,5.40
2015,08,29,00,07,8.30
2015,08,29,00,08,4.00
2015,08,29,00,09,6.00
2015,08,29,00,10,7.70
2015,08,29,00,11,6.00
2015,08,29,00,12,6.40
2015,08,29,00,13,4.20
2015,08,29,00,14,5.70
2015,08,29,00,15,5.20
2015,08,29,00,16,5.30
2015,08,29,00,17,6.10
2015,08,29,00,18,12.20
2015,08,29,00,19,6.20
2015,08,29,00,20,8.40
2015,08,29,00,21,8.30
2015,08,29,00,22,5.60
2015,08,29,00,23,6.30
2015,08,29,00,24,8.20
2015,08,29,00,25,6.80
2015,08,29,00,26,5.30
2015,08,29,00,27,7.90
2015,08,29,00,28,9.50
2015,08,29,00,29,6.30
2015,08,29,00,30,6.00
2015,08,29,00,31,4.80
2015,08,29,00,32,5.60
2015,08,29,00,33,5.30
2015,08,29,00,34,6.80
2015,08,29,00,35,8.80
2015,08,29,00,36,3.70
2015,08,29,00,37,4.70
2015,08,29,00,38,2.40
2015,08,29,00,39,7.50
2015,08,29,00,40,7.40
2015,08,29,00,41,5.70
2015,08,29,00,42,11.70
2015,08,29,00,43,12.60
2015,08,29,00,44,7.30
2015,08,29,00,45,6.80
2015,08,29,00,46,7.10
2015,08,29,00,47,6.70
2015,08,29,00,48,8.60
2015,08,29,00,49,8.10
2015,08,29,00,50,7.60
2015,08,29,00,51,6.20
2015,08,29,00,52,9.90
2015,08,29,00,53,7.20
2015,08,29,00,54,6.90
2015,08,29,00,55,8.80
2015,08,29,00,56,12.10
2015,08,29,00,57,9.40
2015,08,29,00,58,8.90
2015,08,29,00,59,10.10
2015,08,29,01,00,13.20
2015,08,29,01,01,7.20
2015,08,29,01,02,9.30
2015,08,29,01,03,13.80
2015,08,29,01,04,12.80
2015,08,29,01,05,8.40
2015,08,29,01,06,7.90
2015,08,29,01,07,8.40
2015,08,29,01,08,6.40
2015,08,29,01,09,6.90
2015,08,29,01,10,10.50
2015,08,29,01,11,8.90
2015,08,29,01,12,12.90
2015,08,29,01,13,12.60
2015,08,29,01,14,10.50
2015,08,29,01,15,8.60
2015,08,29,01,16,14.20
2015,08,29,01,17,15.70
2015,08,29,01,18,13.00
2015,08,29,01,19,14.60
2015,08,29,01,20,10.80
2015,08,29,01,21,11.30
2015,08,29,01,22,8.60
2015,08,29,01,23,13.20
2015,08,29,01,24,16.00
2015,08,29,01,25,12.20
2015,08,29,01,26,13.60
2015,08,29,01,27,13.40
2015,08,29,01,28,16.50
2015,08,29,01,29,10.30
2015,08,29,01,30,11.50
2015,08,29,01,31,13.30
2015,08,29,01,32,14.80
2015,08,29,01,33,16.10
2015,08,29,01,34,13.80
2015,08,29,01,35,10.10
2015,08,29,01,36,11.90
2015,08,29,01,37,13.80
2015,08,29,01,38,16.90
2015,08,29,01,39,11.00
2015,08,29,01,40,13.90
2015,08,29,01,41,13.70
2015,08,29,01,42,17.00
2015,08,29,01,43,13.40
2015,08,29,01,44,11.30
2015,08,29,01,45,9.50
2015,08,29,01,46,8.80
2015,08,29,01,47,9.60
2015,08,29,01,48,10.60
2015,08,29,01,49,5.20
2015,08,29,01,50,8.90
2015,08,29,01,51,7.00
2015,08,29,01,52,8.90
2015,08,29,01,53,10.10
2015,08,29,01,54,10.80
2015,08,29,01,55,11.40
2015,08,29,01,56,10.20
2015,08,29,01,57,12.30
2015,08,29,01,58,11.10
2015,08,29,01,59,8.00
2015,08,29,02,00,15.30
2015,08,29,02,01,16.40
2015,08,29,02,02,8.90
2015,08,29,02,03,12.20
2015,08,29,02,04,7.80
2015,08,29,02,05,11.40
2015,08,29,02,06,12.30
2015,08,29,02,07,11.60
2015,08,29,02,08,13.20
2015,08,29,02,09,6.90
2015,08,29,02,10,16.10
2015,08,29,02,11,12.30
2015,08,29,02,12,8.30
2015,08,29,02,13,9.30
2015,08,29,02,14,12.60
2015,08,29,02,15,12.50
2015,08,29,02,16,9.20
2015,08,29,02,17,10.50
2015,08,29,02,18,15.40
2015,08,29,02,19,14.90
2015,08,29,02,20,8.20
2015,08,29,02,21,9.00
2015,08,29,02,22,11.40
2015,08,29,02,23,14.00
2015,08,29,02,24,17.00
2015,08,29,02,25,5.60
2015,08,29,02,26,13.00
2015,08,29,02,27,9.80
2015,08,29,02,28,9.20
2015,08,29,02,29,9.70
2015,08,29,02,30,9.70
2015,08,29,02,31,11.70
2015,08,29,02,32,11.00
2015,08,29,02,33,7.30
2015,08,29,02,34,10.10
2015,08,29,02,35,7.00
2015,08,29,02,36,12.10
2015,08,29,02,37,16.20
2015,08,29,02,38,12.50
2015,08,29,02,39,9.90
2015,08,29,02,40,10.50
2015,08,29,02,41,15.90
2015,08,29,02,42,15.00
2015,08,29,02,43,15.50
2015,08,29,02,44,11.70
2015,08,29,02,45,12.30
2015,08,29,02,46,14.60
2015,08,29,02,47,18.40
2015,08,29,02,48,18.30
2015,08,29,02,49,13.40
2015,08,29,02,50,12.00
2015,08,29,02,51,13.20
2015,08,29,02,52,8.30
2015,08,29,02,53,14.00
2015,08,29,02,54,12.10
2015,08,29,02,55,15.80
2015,08,29,02,56,18.70
2015,08,29,02,57,14.10
2015,08,29,02,58,19.10
2015,08,29,02,59,17.50
2015,08,29,03,00,9.30
2015,08,29,03,01,13.70
2015,08,29,03,02,7.50
2015,08,29,03,03,14.70
2015,08,29,03,04,9.60
2015,08,29,03,05,15.90
2015,08,29,03,06,15.40
2015,08,29,03,07,15.70
2015,08,29,03,08,15.10
2015,08,29,03,09,14.30
2015,08,29,03,10,13.70
2015,08,29,03,11,11.20
2015,08,29,03,12,11.80
2015,08,29,03,13,14.60
2015,08,29,03,14,9.00
2015,08,29,03,15,10.10
2015,08,29,03,16,11.30
2015,08,29,03,17,11.90
2015,08,29,03,18,13.40
2015,08,29,03,19,10.70
2015,08,29,03,20,9.10
2015,08,29,03,21,19.30
2015,08,29,03,22,15.40
2015,08,29,03,23,16.40
2015,08,29,03,24,10.40
2015,08,29,03,25,16.50
2015,08,29,03,26,14.20
2015,08,29,03,27,15.80
2015,08,29,03,28,16.60
2015,08,29,03,29,16.30
2015,08,29,03,30,18.50
2015,08,29,03,31,17.20
2015,08,29,03,32,15.40
2015,08,29,03,33,15.70
2015,08,29,03,34,16.70
2015,08,29,03,35,9.30
2015,08,29,03,36,11.10
2015,08,29,03,37,16.20
2015,08,29,03,38,13.20
2015,08,29,03,39,11.00
2015,08,29,03,40,17.50
2015,08,29,03,41,12.20
2015,08,29,03,42,12.40
2015,08,29,03,43,15.40
2015,08,29,03,44,13.80
2015,08,29,03,45,6.90
2015,08,29,03,46,13.40
2015,08,29,03,47,15.90
2015,08,29,03,48,17.00
2015,08,29,03,49,13.80
2015,08,29,03,50,18.80
2015,08,29,03,51,14.50
2015,08,29,03,52,18.90
2015,08,29,03,53,10.10
2015,08,29,03,54,10.00
2015,08,29,03,55,13.80
2015,08,29,03,56,8.60
2015,08,29,03,57,11.40
2015,08,29,03,58,20.30
2015,08,29,03,59,13.80
2015,08,29,04,00,15.50
2015,08,29,04,01,14.50
2015,08,29,04,02,11.80
2015,08,29,04,03,9.20
2015,08,29,04,04,16.20
2015,08,29,04,05,7.20
2015,08,29,04,06,7.80
2015,08,29,04,07,17.10
2015,08,29,04,08,13.40
2015,08,29,04,09,13.90
2015,08,29,04,10,17.40
2015,08,29,04,11,11.80
2015,08,29,04,12,16.10
2015,08,29,04,13,21.30
2015,08,29,04,14,17.40
2015,08,29,04,15,12.40
2015,08,29,04,16,15.00
2015,08,29,04,17,13.80
2015,08,29,04,18,10.50
2015,08,29,04,19,15.20
2015,08,29,04,20,11.40
2015,08,29,04,21,15.80
2015,08,29,04,22,13.10
2015,08,29,04,23,10.60
2015,08,29,04,24,16.60
2015,08,29,04,25,15.10
2015,08,29,04,26,7.40
2015,08,29,04,27,7.70
2015,08,29,04,28,14.30
2015,08,29,04,29,7.20
2015,08,29,04,30,11.80
2015,08,29,04,31,15.20
2015,08,29,04,32,18.00
2015,08,29,04,33,16.80
2015,08,29,04,34,8.50
2015,08,29,04,35,19.80
2015,08,29,04,36,18.10
2015,08,29,04,37,18.80
2015,08,29,04,38,12.80
2015,08,29,04,39,13.10
2015,08,29,04,40,13.90
2015,08,29,04,41,9.40
2015,08,29,04,42,13.80
2015,08,29,04,43,14.60
2015,08,29,04,44,11.80
2015,08,29,04,45,13.20
2015,08,29,04,46,7.70
2015,08,29,04,47,15.50
2015,08,29,04,48,12.80
2015,08,29,04,49,10.10
2015,08,29,04,50,7.70
2015,08,29,04,51,12.90
2015,08,29,04,52,6.80
2015,08,29,04,53,6.90
2015,08,29,04,54,7.60
2015,08,29,04,55,5.80
2015,08,29,04,56,13.80
2015,08,29,04,57,11.70
2015,08,29,04,58,10.50
2015,08,29,04,59,8.70
2015,08,29,05,00,10.50
2015,08,29,05,01,12.20
2015,08,29,05,02,11.50
2015,08,29,05,03,8.00
2015,08,29,05,04,7.30
2015,08,29,05,05,12.50
2015,08,29,05,06,5.70
2015,08,29,05,07,5.50
2015,08,29,05,08,7.20
2015,08,29,05,09,6.70
2015,08,29,05,10,6.60
2015,08,29,05,11,9.50
2015,08,29,05,12,9.20
2015,08,29,05,13,6.40
2015,08,29,05,14,11.80
2015,08,29,05,15,7.70
2015,08,29,05,16,4.00
2015,08,29,05,17,6.60
2015,08,29,05,18,5.70
2015,08,29,05,19,5.20
2015,08,29,05,20,8.20
2015,08,29,05,21,8.00
2015,08,29,05,22,10.80
2015,08,29,05,23,11.10
2015,08,29,05,24,8.60
2015,08,29,05,25,10.60
2015,08,29,05,26,7.70
2015,08,29,05,27,10.20
2015,08,29,05,28,8.80
2015,08,29,05,29,7.60
2015,08,29,05,30,9.50
2015,08,29,05,31,8.00
2015,08,29,05,32,7.30
2015,08,29,05,33,7.00
2015,08,29,05,34,11.80
2015,08,29,05,35,15.20
2015,08,29,05,36,10.90
2015,08,29,05,37,10.50
2015,08,29,05,38,9.20
2015,08,29,05,39,4.00
2015,08,29,05,40,3.70
2015,08,29,05,41,7.40
2015,08,29,05,42,4.70
2015,08,29,05,43,4.80
2015,08,29,05,44,6.20
2015,08,29,05,45,6.40
2015,08,29,05,46,8.60
2015,08,29,05,47,5.50
2015,08,29,05,48,4.90
2015,08,29,05,49,8.20
2015,08,29,05,50,10.70
2015,08,29,05,51,6.40
2015,08,29,05,52,9.50
2015,08,29,05,53,8.50
2015,08,29,05,54,10.50
2015,08,29,05,55,12.90
2015,08,29,05,56,7.00
2015,08,29,05,57,9.80
2015,08,29,05,58,7.40
2015,08,29,05,59,6.90
2015,08,29,06,00,8.10
2015,08,29,06,01,4.50
2015,08,29,06,02,7.60
2015,08,29,06,03,4.70
2015,08,29,06,04,5.50
2015,08,29,06,05,9.70
2015,08,29,06,06,6.60
2015,08,29,06,07,7.10
2015,08,29,06,08,9.50
2015,08,29,06,09,7.20
2015,08,29,06,10,15.60
2015,08,29,06,11,8.30
2015,08,29,06,12,8.70
2015,08,29,06,13,11.80
2015,08,29,06,14,15.90
2015,08,29,06,15,10.80
2015,08,29,06,16,11.70
2015,08,29,06,17,11.10
2015,08,29,06,18,17.80
2015,08,29,06,19,12.20
2015,08,29,06,20,7.90
2015,08,29,06,21,14.40
2015,08,29,06,22,14.00
2015,08,29,06,23,17.40
2015,08,29,06,24,20.60
2015,08,29,06,25,18.70
2015,08,29,06,26,18.70
2015,08,29,06,27,20.70
2015,08,29,06,28,25.20
2015,08,29,06,29,21.60
2015,08,29,06,30,24.00
2015,08,29,06,31,19.60
2015,08,29,06,32,13.30
2015,08,29,06,33,10.10
2015,08,29,06,34,7.00
2015,08,29,06,35,13.40
2015,08,29,06,36,15.30
2015,08,29,06,37,10.80
2015,08,29,06,38,10.90
2015,08,29,06,39,8.50
2015,08,29,06,40,6.60
2015,08,29,06,41,8.60
2015,08,29,06,42,12.30
2015,08,29,06,43,12.20
2015,08,29,06,44,9.10
2015,08,29,06,45,12.60
2015,08,29,06,46,9.00
2015,08,29,06,47,8.50
2015,08,29,06,48,9.70
2015,08,29,06,49,8.80
2015,08,29,06,50,7.10
2015,08,29,06,51,7.20
2015,08,29,06,52,8.10
2015,08,29,06,53,9.70
2015,08,29,06,54,6.30
2015,08,29,06,55,5.30
2015,08,29,06,56,3.10
2015,08,29,06,57,7.00
2015,08,29,06,58,5.10
2015,08,29,06,59,3.90
2015,08,29,07,00,1.60
2015,08,29,07,01,3.40
2015,08,29,07,02,4.90
2015,08,29,07,03,4.80
2015,08,29,07,04,7.50
2015,08,29,07,05,6.40
2015,08,29,07,06,8.50
2015,08,29,07,07,8.50
2015,08,29,07,08,7.30
2015,08,29,07,09,6.20
2015,08,29,07,10,6.10
2015,08,29,07,11,4.30
2015,08,29,07,12,5.20
2015,08,29,07,13,2.90
2015,08,29,07,14,7.90
2015,08,29,07,15,6.40
2015,08,29,07,16,6.60
2015,08,29,07,17,5.60
2015,08,29,07,18,5.80
2015,08,29,07,19,6.60
2015,08,29,07,20,6.80
2015,08,29,07,21,7.50
2015,08,29,07,22,6.50
2015,08,29,07,23,7.20
2015,08,29,07,24,6.40
2015,08,29,07,25,7.90
2015,08,29,07,26,5.00
2015,08,29,07,27,6.30
2015,08,29,07,28,11.70
2015,08,29,07,29,11.00
2015,08,29,07,30,10.80
2015,08,29,07,31,9.80
2015,08,29,07,32,17.90
2015,08,29,07,33,15.80
2015,08,29,07,34,12.60
2015,08,29,07,35,10.20
2015,08,29,07,36,8.60
2015,08,29,07,37,7.70
2015,08,29,07,38,11.60
2015,08,29,07,39,11.00
2015,08,29,07,40,11.30
2015,08,29,07,41,14.90
2015,08,29,07,42,6.60
2015,08,29,07,43,10.40
2015,08,29,07,44,14.10
2015,08,29,07,45,17.30
2015,08,29,07,46,16.70
2015,08,29,07,47,13.40
2015,08,29,07,48,13.40
2015,08,29,07,49,16.20
2015,08,29,07,50,8.80
2015,08,29,07,51,12.90
2015,08,29,07,52,14.80
2015,08,29,07,53,14.50
2015,08,29,07,54,10.30
2015,08,29,07,55,11.00
2015,08,29,07,56,10.90
2015,08,29,07,57,12.80
2015,08,29,07,58,11.10
2015,08,29,07,59,9.50
2015,08,29,08,00,18.30
2015,08,29,08,01,15.20
2015,08,29,08,02,14.60
2015,08,29,08,03,14.10
2015,08,29,08,04,11.40
2015,08,29,08,05,10.30
2015,08,29,08,06,7.30
2015,08,29,08,07,8.90
2015,08,29,08,08,9.00
2015,08,29,08,09,13.60
2015,08,29,08,10,13.60
2015,08,29,08,11,12.30
2015,08,29,08,12,12.60
2015,08,29,08,13,13.80
2015,08,29,08,14,8.60
2015,08,29,08,15,9.50
2015,08,29,08,16,15.00
2015,08,29,08,17,9.20
2015,08,29,08,18,9.30
2015,08,29,08,19,8.30
2015,08,29,08,20,8.70
2015,08,29,08,21,5.90
2015,08,29,08,22,5.20
2015,08,29,08,23,6.50
2015,08,29,08,24,5.50
2015,08,29,08,25,8.60
2015,08,29,08,26,6.80
2015,08,29,08,27,5.70
2015,08,29,08,28,7.50
2015,08,29,08,29,7.70
2015,08,29,08,32,4.50
2015,08,29,08,35,2.60
2015,08,29,08,36,6.00
2015,08,29,08,37,3.00
2015,08,29,08,38,2.50
2015,08,29,08,40,3.20
2015,08,29,08,41,4.50
2015,08,29,08,42,4.00
2015,08,29,08,43,5.40
2015,08,29,08,44,8.40
2015,08,29,08,45,10.50
2015,08,29,08,46,11.10
2015,08,29,08,47,3.70
2015,08,29,08,48,6.20
2015,08,29,08,51,2.10
2015,08,29,08,52,4.80
2015,08,29,08,53,5.60
2015,08,29,08,54,3.80
2015,08,29,09,01,3.20
2015,08,29,09,02,4.50
2015,08,29,09,03,6.10
2015,08,29,09,04,6.30
2015,08,29,09,05,5.40
2015,08,29,09,06,3.90
2015,08,29,09,07,9.10
2015,08,29,09,08,6.40
2015,08,29,09,09,2.50
2015,08,29,09,10,1.60
2015,08,29,09,12,6.50
2015,08,29,09,13,6.20
2015,08,29,09,14,6.90
2015,08,29,09,15,5.10
2015,08,29,09,16,6.90
2015,08,29,09,17,6.30
2015,08,29,09,18,3.60
2015,08,29,09,19,7.70
2015,08,29,09,20,9.90
2015,08,29,09,21,6.40
2015,08,29,09,22,12.30
2015,08,29,09,23,7.30
2015,08,29,09,24,7.80
2015,08,29,09,25,6.90
2015,08,29,09,26,12.90
2015,08,29,09,27,12.70
2015,08,29,09,28,8.80
2015,08,29,09,29,12.30
2015,08,29,09,30,10.50
2015,08,29,09,31,7.90
2015,08,29,09,32,8.20
2015,08,29,09,33,6.80
2015,08,29,09,34,9.10
2015,08,29,09,35,7.60
2015,08,29,09,36,11.50
2015,08,29,09,37,10.50
2015,08,29,09,38,12.50
2015,08,29,09,39,7.40
2015,08,29,09,40,11.60
2015,08,29,09,41,10.40
2015,08,29,09,42,10.00
2015,08,29,09,43,12.40
2015,08,29,09,44,16.30
2015,08,29,09,45,14.10
2015,08,29,09,46,17.10
2015,08,29,09,47,16.50
2015,08,29,09,48,9.40
2015,08,29,09,49,11.40
2015,08,29,09,50,16.30
2015,08,29,09,51,16.40
2015,08,29,09,52,15.30
2015,08,29,09,53,12.60
2015,08,29,09,54,15.30
2015,08,29,09,55,16.90
2015,08,29,09,56,18.50
2015,08,29,09,57,20.10
2015,08,29,09,58,13.60
2015,08,29,09,59,16.10
2015,08,29,10,00,18.90
2015,08,29,10,01,12.70
2015,08,29,10,02,12.90
2015,08,29,10,03,11.60
2015,08,29,10,04,11.20
2015,08,29,10,05,8.90
2015,08,29,10,06,8.40
2015,08,29,10,07,13.30
2015,08,29,10,08,19.90
2015,08,29,10,09,13.10
2015,08,29,10,10,6.40
2015,08,29,10,11,12.10
2015,08,29,10,12,17.20
2015,08,29,10,13,11.80
2015,08,29,10,14,12.70
2015,08,29,10,15,7.80
2015,08,29,10,16,4.80
2015,08,29,10,17,7.80
2015,08,29,10,18,6.00
2015,08,29,10,19,5.00
2015,08,29,10,20,8.80
2015,08,29,10,21,16.10
2015,08,29,10,22,12.50
2015,08,29,10,23,10.10
2015,08,29,10,24,8.90
2015,08,29,10,25,8.80
2015,08,29,10,26,13.00
2015,08,29,10,27,6.80
2015,08,29,10,28,3.70
2015,08,29,10,29,5.30
2015,08,29,10,30,7.90
2015,08,29,10,31,5.70
2015,08,29,10,32,6.80
2015,08,29,10,33,9.70
2015,08,29,10,34,10.50
2015,08,29,10,35,7.00
2015,08,29,10,36,13.40
2015,08,29,10,37,8.00
2015,08,29,10,38,7.30
2015,08,29,10,39,9.10
2015,08,29,10,40,14.60
2015,08,29,10,41,11.70
2015,08,29,10,42,10.10
2015,08,29,10,43,13.90
2015,08,29,10,44,7.00
2015,08,29,10,45,14.10
2015,08,29,10,46,11.60
2015,08,29,10,47,13.40
2015,08,29,10,48,8.90
2015,08,29,10,49,8.50
2015,08,29,10,50,11.20
2015,08,29,10,51,12.60
2015,08,29,10,52,11.30
2015,08,29,10,53,6.10
2015,08,29,10,54,6.60
2015,08,29,10,55,10.40
2015,08,29,10,56,7.70
2015,08,29,10,57,12.00
2015,08,29,10,58,15.60
2015,08,29,10,59,12.90
2015,08,29,11,00,13.90
2015,08,29,11,01,12.20
2015,08,29,11,02,6.20
2015,08,29,11,03,6.60
2015,08,29,11,04,11.10
2015,08,29,11,05,9.20
2015,08,29,11,06,7.10
2015,08,29,11,07,8.20
2015,08,29,11,08,14.70
2015,08,29,11,09,12.70
2015,08,29,11,10,12.90
2015,08,29,11,11,12.00
2015,08,29,11,12,8.80
2015,08,29,11,13,7.60
2015,08,29,11,14,18.40
2015,08,29,11,15,8.10
2015,08,29,11,16,10.80
2015,08,29,11,17,13.30
2015,08,29,11,18,12.60
2015,08,29,11,19,10.80
2015,08,29,11,20,14.20
2015,08,29,11,21,14.30
2015,08,29,11,22,13.60
2015,08,29,11,23,15.90
2015,08,29,11,24,9.90
2015,08,29,11,25,15.70
2015,08,29,11,26,12.60
2015,08,29,11,27,14.60
2015,08,29,11,28,10.10
2015,08,29,11,29,10.90
2015,08,29,11,30,14.30
2015,08,29,11,31,13.40
2015,08,29,11,32,17.60
2015,08,29,11,33,10.50
2015,08,29,11,34,7.20
2015,08,29,11,35,13.00
2015,08,29,11,36,10.70
2015,08,29,11,37,12.20
2015,08,29,11,38,10.10
2015,08,29,11,39,12.40
2015,08,29,11,40,7.00
2015,08,29,11,41,16.30
2015,08,29,11,42,10.60
2015,08,29,11,43,14.50
2015,08,29,11,44,12.10
2015,08,29,11,45,17.90
2015,08,29,11,46,16.00
2015,08,29,11,47,14.60
2015,08,29,11,48,8.90
2015,08,29,11,49,14.10
2015,08,29,11,50,14.70
2015,08,29,11,51,12.00
2015,08,29,11,52,14.90
2015,08,29,11,53,15.00
2015,08,29,11,54,17.80
2015,08,29,11,55,13.10
2015,08,29,11,56,10.80
2015,08,29,11,57,20.00
2015,08,29,11,58,18.60
2015,08,29,11,59,18.30
2015,08,29,12,00,14.60
2015,08,29,12,01,17.60
2015,08,29,12,02,22.50
2015,08,29,12,03,21.40
2015,08,29,12,04,24.30
2015,08,29,12,05,26.80
2015,08,29,12,06,23.90
2015,08,29,12,07,18.50
2015,08,29,12,08,22.50
2015,08,29,12,09,23.10
2015,08,29,12,10,17.30
2015,08,29,12,11,22.50
2015,08,29,12,12,27.80
2015,08,29,12,13,27.30
2015,08,29,12,14,28.40
2015,08,29,12,15,31.50
2015,08,29,12,16,22.30
2015,08,29,12,17,19.40
2015,08,29,12,18,30.30
2015,08,29,12,19,32.20
2015,08,29,12,20,31.00
2015,08,29,12,21,22.80
2015,08,29,12,22,20.30
2015,08,29,12,23,24.90
2015,08,29,12,24,26.30
2015,08,29,12,25,19.60
2015,08,29,12,26,24.70
2015,08,29,12,27,24.20
2015,08,29,12,28,22.40
2015,08,29,12,29,22.70
2015,08,29,12,30,20.90
2015,08,29,12,31,31.40
2015,08,29,12,32,35.80
2015,08,29,12,33,20.80
2015,08,29,12,34,21.70
2015,08,29,12,35,25.10
2015,08,29,12,36,24.80
2015,08,29,12,37,27.50
2015,08,29,12,38,23.40
2015,08,29,12,39,31.10
2015,08,29,12,40,23.30
2015,08,29,12,41,25.40
2015,08,29,12,42,21.50
2015,08,29,12,43,29.70
2015,08,29,12,44,25.50
2015,08,29,12,45,22.50
2015,08,29,12,46,25.20
2015,08,29,12,47,19.70
2015,08,29,12,48,18.50
2015,08,29,12,49,18.20
2015,08,29,12,50,17.70
2015,08,29,12,51,17.70
2015,08,29,12,52,17.70
2015,08,29,12,53,17.70
2015,08,29,12,54,17.70
2015,08,29,12,55,17.70
2015,08,29,12,56,17.70
2015,08,29,12,57,17.70
2015,08,29,12,58,17.70
2015,08,29,13,31,20.50
2015,08,29,13,32,18.50
2015,08,29,13,33,23.40
2015,08,29,13,34,15.80
2015,08,29,13,35,10.50
2015,08,29,13,36,15.20
2015,08,29,13,37,12.50
2015,08,29,13,38,9.20
2015,08,29,13,39,15.80
2015,08,29,13,40,15.10
2015,08,29,13,41,23.20
2015,08,29,13,42,21.20
2015,08,29,13,43,27.00
2015,08,29,13,44,27.60
2015,08,29,13,45,20.20
2015,08,29,13,46,16.40
2015,08,29,13,47,18.20
2015,08,29,13,48,23.10
2015,08,29,13,49,23.00
2015,08,29,13,50,23.70
2015,08,29,13,51,21.60
2015,08,29,13,52,17.70
2015,08,29,13,53,15.80
2015,08,29,13,54,18.70
2015,08,29,13,55,15.90
2015,08,29,13,56,15.90
2015,08,29,13,57,16.60
2015,08,29,13,58,16.30
2015,08,29,13,59,14.80
2015,08,29,14,00,17.60
2015,08,29,14,01,21.50
2015,08,29,14,02,25.60
2015,08,29,14,03,18.00
2015,08,29,14,04,15.40
2015,08,29,14,05,13.90
2015,08,29,14,06,9.30
2015,08,29,14,07,8.00
2015,08,29,14,08,4.00
2015,08,29,14,09,3.60
2015,08,29,14,10,2.30
2015,08,29,14,11,7.50
2015,08,29,14,12,2.50
2015,08,29,14,13,4.40
2015,08,29,14,14,4.70
2015,08,29,14,15,5.60
2015,08,29,14,16,7.10
2015,08,29,14,17,7.10
2015,08,29,14,18,6.00
2015,08,29,14,19,2.50
2015,08,29,14,20,1.60
2015,08,29,14,21,7.70
2015,08,29,14,22,6.50
2015,08,29,14,23,7.00
2015,08,29,14,24,7.40
2015,08,29,14,25,6.70
2015,08,29,14,26,5.20
2015,08,29,14,27,9.90
2015,08,29,14,28,13.80
2015,08,29,14,29,33.90
2015,08,29,14,30,16.90
2015,08,29,14,31,21.00
2015,08,29,14,32,20.40
2015,08,29,14,33,33.40
2015,08,29,14,34,26.50
2015,08,29,14,35,10.50
2015,08,29,14,36,13.80
2015,08,29,14,37,12.50
2015,08,29,14,38,14.10
2015,08,29,14,39,10.00
2015,08,29,14,40,19.10
2015,08,29,14,41,21.10
2015,08,29,14,42,30.00
2015,08,29,14,43,19.50
2015,08,29,14,44,31.70
2015,08,29,14,45,15.30
2015,08,29,14,46,22.70
2015,08,29,14,47,12.60
2015,08,29,14,48,16.60
2015,08,29,14,49,13.00
2015,08,29,14,50,4.70
2015,08,29,14,51,1.60
2015,08,29,14,52,5.20
2015,08,29,14,53,5.20
2015,08,29,14,54,11.40
2015,08,29,14,55,19.60
2015,08,29,14,56,11.30
2015,08,29,14,57,5.40
2015,08,29,14,58,9.70
2015,08,29,14,59,5.00
2015,08,29,15,00,4.70
2015,08,29,15,01,3.50
2015,08,29,15,02,6.20
2015,08,29,15,03,26.50
2015,08,29,15,04,14.30
2015,08,29,15,05,3.20
2015,08,29,15,06,6.10
2015,08,29,15,07,11.80
2015,08,29,15,08,6.20
2015,08,29,15,09,6.30
2015,08,29,15,10,13.80
2015,08,29,15,11,14.60
2015,08,29,15,12,10.60
2015,08,29,15,13,7.10
2015,08,29,15,14,7.80
2015,08,29,15,15,5.60
2015,08,29,15,16,7.10
2015,08,29,15,17,7.40
2015,08,29,15,18,12.60
2015,08,29,15,19,16.30
2015,08,29,15,20,7.70
2015,08,29,15,21,5.60
2015,08,29,15,22,12.50
2015,08,29,15,23,13.70
2015,08,29,15,24,17.70
2015,08,29,15,25,11.70
2015,08,29,15,26,10.40
2015,08,29,15,27,8.70
2015,08,29,15,28,4.60
2015,08,29,15,29,14.60
2015,08,29,15,30,13.90
2015,08,29,15,31,6.80
2015,08,29,15,32,4.10
2015,08,29,15,33,5.90
2015,08,29,15,34,4.20
2015,08,29,15,35,11.30
2015,08,29,15,36,4.10
2015,08,29,15,37,16.20
2015,08,29,15,38,10.90
2015,08,29,15,39,13.30
2015,08,29,15,40,13.00
2015,08,29,15,41,16.00
2015,08,29,15,42,19.10
2015,08,29,15,43,11.70
2015,08,29,15,44,11.40
2015,08,29,15,45,6.60
2015,08,29,15,46,10.50
2015,08,29,15,47,4.00
2015,08,29,15,48,4.60
2015,08,29,15,49,3.20
2015,08,29,15,50,1.60
2015,08,29,15,51,3.90
2015,08,29,15,52,6.70
2015,08,29,15,53,3.20
2015,08,29,15,54,1.60
2015,08,29,15,55,4.50
2015,08,29,15,56,5.20
2015,08,29,15,57,6.80
2015,08,29,15,58,10.60
2015,08,29,15,59,9.10
2015,08,29,16,00,4.50
2015,08,29,16,01,2.00
2015,08,29,16,06,1.60
2015,08,29,16,07,6.30
2015,08,29,16,08,5.20
2015,08,29,16,19,2.40
2015,08,29,16,23,1.60
2015,08,29,16,25,3.80
2015,08,29,16,26,2.90
2015,08,29,16,27,2.80
2015,08,29,16,28,2.90
2015,08,29,16,29,4.80
2015,08,29,16,30,4.30
2015,08,29,16,31,6.70
2015,08,29,16,32,7.90
2015,08,29,16,33,8.10
2015,08,29,16,34,9.60
2015,08,29,16,35,12.30
2015,08,29,16,36,10.10
2015,08,29,16,37,11.30
2015,08,29,16,38,11.80
2015,08,29,16,39,11.10
2015,08,29,16,40,12.90
2015,08,29,16,41,11.80
2015,08,29,16,42,12.20
2015,08,29,16,43,8.90
2015,08,29,16,44,11.40
2015,08,29,16,45,10.10
2015,08,29,16,46,16.00
2015,08,29,16,47,15.70
2015,08,29,16,48,9.40
2015,08,29,16,49,12.20
2015,08,29,16,50,6.90
2015,08,29,16,51,10.80
2015,08,29,16,52,9.20
2015,08,29,16,53,16.20
2015,08,29,16,54,13.00
2015,08,29,16,55,13.80
2015,08,29,16,56,12.40
2015,08,29,16,57,9.70
2015,08,29,16,58,18.30
2015,08,29,16,59,11.80
2015,08,29,17,00,16.30
2015,08,29,17,01,17.50
2015,08,29,17,02,14.30
2015,08,29,17,03,14.60
2015,08,29,17,04,15.00
2015,08,29,17,05,17.20
2015,08,29,17,06,17.40
2015,08,29,17,07,16.90
2015,08,29,17,08,15.80
2015,08,29,17,09,15.60
2015,08,29,17,10,12.00
2015,08,29,17,11,12.60
2015,08,29,17,12,16.20
2015,08,29,17,13,15.20
2015,08,29,17,14,12.10
2015,08,29,17,15,14.70
2015,08,29,17,16,17.60
2015,08,29,17,17,18.30
2015,08,29,17,18,17.00
2015,08,29,17,19,13.20
2015,08,29,17,20,8.60
2015,08,29,17,21,15.00
2015,08,29,17,22,17.60
2015,08,29,17,23,12.70
2015,08,29,17,24,7.70
2015,08,29,17,25,6.30
2015,08,29,17,26,5.90
2015,08,29,17,27,2.60
2015,08,29,17,28,1.90
2015,08,29,17,29,5.20
2015,08,29,17,30,8.30
2015,08,29,17,31,6.40
2015,08,29,17,32,8.10
2015,08,29,17,33,9.60
2015,08,29,17,34,12.60
2015,08,29,17,35,16.50
2015,08,29,17,36,16.90
2015,08,29,17,37,14.60
2015,08,29,17,38,17.50
2015,08,29,17,39,10.50
2015,08,29,17,40,15.90
2015,08,29,17,41,17.90
2015,08,29,17,42,17.00
2015,08,29,17,43,14.60
2015,08,29,17,44,22.10
2015,08,29,17,45,21.50
2015,08,29,17,46,24.10
2015,08,29,17,47,20.40
2015,08,29,17,48,20.80
2015,08,29,17,49,15.80
2015,08,29,17,50,13.50
2015,08,29,17,51,15.80
2015,08,29,17,52,16.40
2015,08,29,17,53,16.50
2015,08,29,17,54,15.00
2015,08,29,17,55,17.30
2015,08,29,17,56,16.80
2015,08,29,17,57,12.50
2015,08,29,17,58,13.80
2015,08,29,17,59,19.80
2015,08,29,18,00,15.20
2015,08,29,18,01,12.20
2015,08,29,18,02,10.90
2015,08,29,18,03,12.60
2015,08,29,18,04,14.40
2015,08,29,18,05,9.80
2015,08,29,18,06,7.50
2015,08,29,18,07,13.00
2015,08,29,18,08,14.60
2015,08,29,18,09,19.00
2015,08,29,18,10,17.10
2015,08,29,18,11,13.40
2015,08,29,18,12,19.70
2015,08,29,18,13,13.60
2015,08,29,18,14,12.60
2015,08,29,18,15,12.20
2015,08,29,18,16,10.50
2015,08,29,18,17,10.40
2015,08,29,18,18,10.90
2015,08,29,18,19,13.60
2015,08,29,18,20,11.40
2015,08,29,18,21,15.50
2015,08,29,18,22,13.80
2015,08,29,18,23,11.30
2015,08,29,18,24,12.40
2015,08,29,18,25,10.40
2015,08,29,18,26,3.90
2015,08,29,18,27,7.50
2015,08,29,18,28,10.10
2015,08,29,18,29,5.60
2015,08,29,18,30,7.20
2015,08,29,18,31,4.70
2015,08,29,18,32,6.70
2015,08,29,18,33,9.50
2015,08,29,18,34,5.30
2015,08,29,18,35,7.60
2015,08,29,18,36,5.90
2015,08,29,18,37,5.30
2015,08,29,18,38,5.30
2015,08,29,18,39,10.70
2015,08,29,18,40,6.40
2015,08,29,18,41,10.20
2015,08,29,18,42,5.60